Regional Weather Roundup
Issued by NWS Sioux Falls, SD

Home | Current Version | Previous Version | Graphics & Text | Print | Product List | Glossary Off
Versions: 1 2 3 4 5 6 7 8 9 10 11 12 13 14 15 16 17 18 19 20 21 22 23 24 25 26 27 28 29 30 31 32 33 34 35 36 37 38 39 40 41 42 43 44 45 46 47 48 49 50

000
ASUS43 KFSD 041810
RWRFSD

WEATHER ROUNDUP FOR SE SOUTH DAKOTA/SW MINNESOTA/NW IOWA
NATIONAL WEATHER SERVICE SIOUX FALLS SD
100 PM CDT TUE AUG 04 2015

NOTE: "FAIR" INDICATES FEW OR NO CLOUDS BELOW 12,000 FEET WITH NO
SIGNIFICANT WEATHER AND OR OBSTRUCTIONS TO VISIBILITY.


SDZ038>040-050-052>070-041900-
SOUTHEAST SOUTH DAKOTA

CITY           SKY/WX    TMP DP  RH WIND       PRES   REMARKS
BROOKINGS      PTSUNNY   75  59  57 SE9       30.01S
CHAMBERLAIN    PTSUNNY   76  64  65 SE10      29.96F
6HR MIN TEMP:  63; 6HR MAX TEMP:  76;

HURON          PTSUNNY   79  64  60 E10       29.96S
6HR MIN TEMP:  60; 6HR MAX TEMP:  80;

MADISON        FAIR      75  64  69 E9        30.01R
MITCHELL       PTSUNNY   77  65  66 SE9       29.97S
6HR MIN TEMP:  62; 6HR MAX TEMP:  78;

SIOUX FALLS    CLOUDY    75  61  61 E12       29.99R
6HR MIN TEMP:  59; 6HR MAX TEMP:  75;

WINNER         FAIR      77  65  66 NE8       29.96R
YANKTON        PTSUNNY   75  63  64 SE12      29.95S
$$

MNZ071-072-080-081-089-090-097-098-041900-
SOUTHWEST MINNESOTA

CITY           SKY/WX    TMP DP  RH WIND       PRES   REMARKS
FAIRMONT       CLOUDY    73  48  40 SE5       30.02F
JACKSON        CLOUDY    77  52  41 SE8       30.03F
LUVERNE        CLOUDY    77  59  53 SE10      30.00F
MARSHALL       MOSUNNY   79  50  36 S6        30.02S
6HR MIN TEMP:  54; 6HR MAX TEMP:  79;

MONTEVIDEO     SUNNY     81  57  44 CALM      30.01F
PIPESTONE      CLOUDY    75  57  53 SE9       30.01S
REDWOOD FALLS  MOSUNNY   79  44  28 S10       30.00F
TRACY          PTSUNNY   77  54  44 SE5       30.02S
WINDOM         CLOUDY    75  46  35 CALM      30.02F
WORTHINGTON    CLOUDY    73  55  53 S12       30.02F
$$

IAZ001>003-012>014-020>022-031-032-NEZ013-014-SDZ071-041900-
NORTHWEST IOWA

CITY           SKY/WX    TMP DP  RH WIND       PRES   REMARKS
CHEROKEE       CLOUDY    76  64  66 SE7       30.00F
DENISON        CLOUDY    72  63  73 E8        29.96F
ESTHERVILLE    CLOUDY    75  52  44 SE9       30.03F
LE MARS        CLOUDY    75  64  69 SE12      29.97F
ORANGE CITY    CLOUDY    73  63  68 SE7       29.98F
SHELDON        CLOUDY    75  61  60 SE12      29.99F
SIOUX CITY     CLOUDY    73  63  70 E14       29.92F
6HR MIN TEMP:  67; 6HR MAX TEMP:  73; 6HR PCP: TRACE;

SPENCER        PTSUNNY   76  54  46 SE14      30.02F
6HR MIN TEMP:  55; 6HR MAX TEMP:  77;

STORM LAKE     CLOUDY    73  63  68 SE9       30.02F
$$

ABBREVIATIONS USED IN REMARKS
   TC - TEMPERATURE IN CELSIUS
  WCI - WIND CHILL INDEX
   HX - HEAT INDEX
  VSB - VISIBILITY



USA.gov is the U.S. government's official web portal to all federal, state and local government web resources and services.